Location: Newark
(28.2239°N, 112.9771°E)
Time: 18:41:40
(UTC+00:00)

LightSail 2 - Visible Passes

Search period start: 23 October 2019 00:00
Search period end: 02 November 2019 00:00
Orbit: 707 x 722 km, 24.0° (Epoch: 22 October)

Date Brightness Start Highest point End Pass type
(mag) Time Alt. Az. Time Alt. Az. Time Alt. Az.
23 Oct 7.5 11:40:20 10° SW 11:43:02 14° SSW 11:45:17 11° S visible
24 Oct 7.4 10:41:58 10° WSW 10:45:33 19° SSW 10:49:07 10° SSE visible
26 Oct 7.8 10:33:52 10° SW 10:35:34 12° SSW 10:37:16 10° S visible
